| time (UTC) | temp F | wind direction | speed knots | gust knots | rain 1hr in | rain 24hr in | rain mn in | humidity % | barometer mb |
| 20260502152049 | 72 | 320 | 7.8 | 13.0 | 0.00 | 0.00 | 0.00 | 15 | 1016.5 |
| 20260502151603 | 71 | 17 | 7.8 | 13.0 | 0.00 | 0.00 | 0.00 | 15 | 1016.6 |
| 20260502151552 | 53 | 0 | 0.0 | 1.7 | 0.00 | 0.00 | 0.00 | 96 | 1015.1 |
| 20260502151047 | 71 | 357 | 8.7 | 13.0 | 0.00 | 0.00 | 0.00 | 15 | 1016.5 |
| 20260502150546 | 70 | 352 | 7.8 | 13.0 | 0.00 | 0.00 | 0.00 | 15 | 1016.5 |
| 20260502150105 | 70 | 338 | 8.7 | 13.0 | 0.00 | 0.00 | 0.00 | 15 | 1016.4 |
| 20260502130544 | 55 | 316 | 6.1 | 8.7 | 0.00 | 0.00 | 0.00 | 21 | 1015.5 |
| 20260502123545 | 55 | 313 | 6.1 | 8.7 | 0.00 | 0.00 | 0.00 | 21 | 1015.4 |
| 20260502123103 | 55 | 333 | 6.1 | 8.7 | 0.00 | 0.00 | 0.00 | 21 | 1015.3 |
| 20260502123057 | 51 | 0 | 0.0 | 0.0 | 0.00 | 0.00 | 0.00 | 92 | 1014.1 |
| 20260502122546 | 54 | 312 | 4.3 | 8.7 | 0.00 | 0.00 | 0.00 | 22 | 1015.4 |
| 20260502122044 | 55 | 325 | 6.1 | 8.7 | 0.00 | 0.00 | 0.00 | 22 | 1015.3 |
| 20260502121555 | 55 | 321 | 6.1 | 9.6 | 0.00 | 0.00 | 0.00 | 22 | 1015.1 |
| 20260502121546 | 51 | 0 | 0.0 | 0.0 | 0.00 | 0.00 | 0.00 | 90 | 1014.1 |
| 20260502121043 | 55 | 311 | 6.1 | 9.6 | 0.00 | 0.00 | 0.00 | 21 | 1015.2 |
| 20260502120544 | 55 | 322 | 7.0 | 9.6 | 0.00 | 0.00 | 0.00 | 21 | 1015.2 |
| 20260502115543 | 56 | 320 | 6.1 | 9.6 | 0.00 | 0.00 | 0.00 | 21 | 1015.2 |
| 20260502115043 | 55 | 324 | 6.1 | 8.7 | 0.00 | 0.00 | 0.00 | 21 | 1015.1 |
| 20260502114551 | 56 | 336 | 5.2 | 7.8 | 0.00 | 0.00 | 0.00 | 21 | 1015.2 |
| 20260502114545 | 50 | 0 | 0.0 | 0.0 | 0.00 | 0.00 | 0.00 | 86 | 1013.9 |
| 20260502114047 | 56 | 328 | 5.2 | 9.6 | 0.00 | 0.00 | 0.00 | 21 | 1015.2 |
| 20260502113550 | 56 | 323 | 7.0 | 10.4 | 0.00 | 0.00 | 0.00 | 21 | 1015.0 |
| 20260502113053 | 56 | 328 | 7.0 | 10.4 | 0.00 | 0.00 | 0.00 | 21 | 1015.0 |
| 20260502113051 | 51 | 0 | 0.0 | 0.0 | 0.00 | 0.00 | 0.00 | 84 | 1013.9 |
| 20260502112542 | 56 | 322 | 7.0 | 10.4 | 0.00 | 0.00 | 0.00 | 21 | 1015.2 |
| 20260502112043 | 56 | 326 | 6.1 | 10.4 | 0.00 | 0.00 | 0.00 | 21 | 1015.1 |
| 20260502111552 | 52 | 0 | 0.0 | 0.0 | 0.00 | 0.00 | 0.00 | 85 | 1013.6 |
| 20260502111548 | 56 | 323 | 7.0 | 10.4 | 0.00 | 0.00 | 0.00 | 22 | 1015.1 |
| 20260502111042 | 56 | 334 | 7.0 | 10.4 | 0.00 | 0.00 | 0.00 | 22 | 1015.1 |
| 20260502110543 | 56 | 300 | 6.1 | 10.4 | 0.00 | 0.00 | 0.00 | 22 | 1015.2 |
| 20260502110058 | 56 | 300 | 6.1 | 9.6 | 0.00 | 0.00 | 0.00 | 22 | 1015.1 |
| 20260502110040 | 52 | 0 | 0.0 | 0.0 | 0.00 | 0.00 | 0.00 | 86 | 1013.5 |
| 20260502105549 | 56 | 316 | 7.0 | 9.6 | 0.00 | 0.00 | 0.00 | 22 | 1015.2 |
| 20260502105047 | 56 | 307 | 7.8 | 9.6 | 0.00 | 0.00 | 0.00 | 22 | 1015.2 |
| 20260502104552 | 55 | 324 | 6.1 | 8.7 | 0.00 | 0.00 | 0.00 | 23 | 1015.1 |
| 20260502104549 | 52 | 0 | 0.0 | 0.0 | 0.00 | 0.00 | 0.00 | 85 | 1013.5 |
| 20260502104047 | 55 | 309 | 6.1 | 8.7 | 0.00 | 0.00 | 0.00 | 23 | 1015.2 |
| 20260502103546 | 55 | 297 | 6.1 | 9.6 | 0.00 | 0.00 | 0.00 | 23 | 1015.1 |
| 20260502103058 | 56 | 310 | 6.1 | 9.6 | 0.00 | 0.00 | 0.00 | 23 | 1015.2 |
| 20260502103045 | 53 | 0 | 0.0 | 0.9 | 0.00 | 0.00 | 0.00 | 86 | 1013.5 |
| 20260502102549 | 56 | 276 | 6.1 | 9.6 | 0.00 | 0.00 | 0.00 | 23 | 1015.1 |
| 20260502102044 | 56 | 302 | 7.0 | 9.6 | 0.00 | 0.00 | 0.00 | 23 | 1015.0 |
| 20260502101613 | 56 | 316 | 7.0 | 9.6 | 0.00 | 0.00 | 0.00 | 22 | 1014.9 |
| 20260502101543 | 53 | 0 | 0.0 | 0.0 | 0.00 | 0.00 | 0.00 | 85 | 1013.5 |
| 20260502101042 | 56 | 279 | 6.1 | 8.7 | 0.00 | 0.00 | 0.00 | 22 | 1014.9 |
| 20260502100544 | 56 | 309 | 6.1 | 8.7 | 0.00 | 0.00 | 0.00 | 22 | 1015.0 |
| 20260502100111 | 56 | 304 | 6.1 | 8.7 | 0.00 | 0.00 | 0.00 | 22 | 1015.0 |
| 20260502091047 | 56 | 310 | 6.1 | 9.6 | 0.00 | 0.00 | 0.00 | 22 | 1015.2 |
| 20260502090547 | 56 | 311 | 6.1 | 8.7 | 0.00 | 0.00 | 0.00 | 22 | 1015.2 |
| 20260502080103 | 57 | 326 | 4.3 | 7.0 | 0.00 | 0.00 | 0.00 | 21 | 1015.6 |
| 20260502071047 | 59 | 330 | 5.2 | 7.8 | 0.00 | 0.00 | 0.00 | 21 | 1015.6 |
| 20260502070549 | 58 | 304 | 5.2 | 7.8 | 0.00 | 0.00 | 0.00 | 21 | 1015.6 |
| 20260502070057 | 58 | 326 | 4.3 | 7.8 | 0.00 | 0.00 | 0.00 | 21 | 1015.7 |
| 20260502070041 | 54 | 0 | 0.0 | 0.0 | 0.00 | 0.00 | 0.00 | 88 | 1014.6 |
| 20260502065546 | 58 | 294 | 5.2 | 7.8 | 0.00 | 0.00 | 0.00 | 22 | 1015.7 |
| 20260502065049 | 58 | 314 | 4.3 | 7.0 | 0.00 | 0.00 | 0.00 | 22 | 1015.7 |
| 20260502064634 | 58 | 344 | 3.5 | 7.0 | 0.00 | 0.00 | 0.00 | 22 | 1015.6 |
| 20260502064552 | 58 | 344 | 3.5 | 7.0 | 0.00 | 0.00 | 0.00 | 22 | 1015.6 |
| 20260502064546 | 54 | 0 | 0.0 | 0.0 | 0.00 | 0.00 | 0.00 | 88 | 1014.6 |
| 20260502064045 | 59 | 322 | 5.2 | 7.0 | 0.00 | 0.00 | 0.00 | 22 | 1015.6 |
| 20260502063546 | 59 | 304 | 4.3 | 6.1 | 0.00 | 0.00 | 0.00 | 22 | 1015.6 |
| 20260502063101 | 55 | 0 | 0.0 | 1.7 | 0.00 | 0.00 | 0.00 | 87 | 1014.6 |
| 20260502063053 | 58 | 307 | 5.2 | 6.1 | 0.00 | 0.00 | 0.00 | 22 | 1015.6 |
| 20260502062548 | 58 | 304 | 3.5 | 6.1 | 0.00 | 0.00 | 0.00 | 22 | 1015.5 |
| 20260502062048 | 59 | 322 | 4.3 | 6.1 | 0.00 | 0.00 | 0.00 | 22 | 1015.5 |
| 20260502061549 | 55 | 0 | 0.0 | 1.7 | 0.00 | 0.00 | 0.00 | 86 | 1014.7 |
| 20260502061101 | 59 | 326 | 3.5 | 7.0 | 0.00 | 0.00 | 0.00 | 22 | 1015.5 |
| 20260502060548 | 60 | 301 | 4.3 | 7.0 | 0.00 | 0.00 | 0.00 | 22 | 1015.5 |
| 20260502060057 | 60 | 301 | 5.2 | 7.0 | 0.00 | 0.00 | 0.00 | 21 | 1015.4 |
| 20260502060041 | 56 | 0 | 0.0 | 0.0 | 0.00 | 0.00 | 0.00 | 86 | 1014.7 |
| 20260502055546 | 60 | 316 | 4.3 | 6.1 | 0.00 | 0.00 | 0.00 | 21 | 1015.3 |
| 20260502055043 | 61 | 331 | 4.3 | 6.1 | 0.00 | 0.00 | 0.00 | 21 | 1015.3 |
| 20260502054559 | 61 | 307 | 4.3 | 6.1 | 0.00 | 0.00 | 0.00 | 21 | 1015.4 |
| 20260502054548 | 56 | 0 | 0.0 | 1.7 | 0.00 | 0.00 | 0.00 | 86 | 1014.7 |
| 20260502054048 | 62 | 311 | 5.2 | 6.1 | 0.00 | 0.00 | 0.00 | 20 | 1015.4 |
| 20260502053543 | 62 | 328 | 4.3 | 7.8 | 0.00 | 0.00 | 0.00 | 20 | 1015.5 |
| 20260502053108 | 63 | 309 | 5.2 | 7.8 | 0.00 | 0.00 | 0.00 | 20 | 1015.5 |
| 20260502053059 | 57 | 0 | 0.0 | 0.0 | 0.00 | 0.00 | 0.00 | 84 | 1014.8 |
| 20260502052543 | 63 | 307 | 5.2 | 7.0 | 0.00 | 0.00 | 0.00 | 20 | 1015.3 |
| 20260502052047 | 63 | 304 | 5.2 | 9.6 | 0.00 | 0.00 | 0.00 | 20 | 1015.3 |
| 20260502051550 | 63 | 302 | 5.2 | 9.6 | 0.00 | 0.00 | 0.00 | 19 | 1015.3 |
| 20260502051548 | 58 | 0 | 0.0 | 0.0 | 0.00 | 0.00 | 0.00 | 84 | 1015.0 |
| 20260502051050 | 64 | 331 | 6.1 | 9.6 | 0.00 | 0.00 | 0.00 | 19 | 1015.1 |
| 20260502050547 | 64 | 317 | 7.0 | 10.4 | 0.00 | 0.00 | 0.00 | 19 | 1015.1 |
| 20260502050054 | 64 | 314 | 7.0 | 10.4 | 0.00 | 0.00 | 0.00 | 19 | 1015.1 |
| 20260502050048 | 58 | 0 | 0.0 | 0.0 | 0.00 | 0.00 | 0.00 | 84 | 1014.9 |
| 20260502045543 | 64 | 300 | 7.0 | 10.4 | 0.00 | 0.00 | 0.00 | 19 | 1015.0 |
| 20260502045043 | 65 | 317 | 6.1 | 9.6 | 0.00 | 0.00 | 0.00 | 19 | 1015.0 |
| 20260502044552 | 65 | 341 | 6.1 | 9.6 | 0.00 | 0.00 | 0.00 | 19 | 1015.0 |
| 20260502044548 | 58 | 0 | 0.0 | 0.0 | 0.00 | 0.00 | 0.00 | 84 | 1014.8 |
| 20260502044047 | 65 | 289 | 4.3 | 7.0 | 0.00 | 0.00 | 0.00 | 19 | 1014.9 |
| 20260502043543 | 65 | 269 | 3.5 | 7.0 | 0.00 | 0.00 | 0.00 | 19 | 1014.8 |
| 20260502043107 | 65 | 301 | 2.6 | 5.2 | 0.00 | 0.00 | 0.00 | 19 | 1014.8 |
| 20260502043054 | 59 | 0 | 0.0 | 0.0 | 0.00 | 0.00 | 0.00 | 83 | 1014.7 |
| 20260502042543 | 65 | 325 | 2.6 | 4.3 | 0.00 | 0.00 | 0.00 | 20 | 1014.8 |
| 20260502042046 | 65 | 276 | 2.6 | 5.2 | 0.00 | 0.00 | 0.00 | 20 | 1014.6 |
| 20260502041554 | 65 | 276 | 2.6 | 5.2 | 0.00 | 0.00 | 0.00 | 20 | 1014.6 |
| 20260502041049 | 65 | 292 | 3.5 | 5.2 | 0.00 | 0.00 | 0.00 | 20 | 1014.6 |
| 20260502040548 | 64 | 278 | 3.5 | 4.3 | 0.00 | 0.00 | 0.00 | 21 | 1014.6 |
| 20260502040057 | 65 | 283 | 3.5 | 4.3 | 0.00 | 0.00 | 0.00 | 20 | 1014.6 |
| 20260502040053 | 60 | 0 | 0.0 | 0.0 | 0.00 | 0.00 | 0.00 | 80 | 1014.4 |
| 20260502035546 | 66 | 283 | 2.6 | 4.3 | 0.00 | 0.00 | 0.00 | 20 | 1014.5 |
| 20260502035045 | 66 | 283 | 2.6 | 5.2 | 0.00 | 0.00 | 0.00 | 19 | 1014.4 |
| 20260502034613 | 67 | 274 | 3.5 | 6.1 | 0.00 | 0.00 | 0.00 | 19 | 1014.2 |
| 20260502034549 | 61 | 0 | 0.0 | 0.0 | 0.00 | 0.00 | 0.00 | 79 | 1014.1 |
| 20260502034043 | 67 | 289 | 3.5 | 6.1 | 0.00 | 0.00 | 0.00 | 19 | 1014.2 |
| 20260502033543 | 68 | 284 | 2.6 | 4.3 | 0.00 | 0.00 | 0.00 | 18 | 1014.1 |
| 20260502033106 | 69 | 328 | 1.7 | 7.8 | 0.00 | 0.00 | 0.00 | 18 | 1014.1 |
| 20260502033043 | 61 | 0 | 0.0 | 3.5 | 0.00 | 0.00 | 0.00 | 79 | 1014.1 |
| 20260502032548 | 70 | 307 | 1.7 | 8.7 | 0.00 | 0.00 | 0.00 | 18 | 1014.0 |
| 20260502032047 | 70 | 345 | 4.3 | 8.7 | 0.00 | 0.00 | 0.00 | 17 | 1013.9 |
| 20260502031603 | 71 | 4 | 5.2 | 9.6 | 0.00 | 0.00 | 0.00 | 17 | 1013.8 |
| 20260502031549 | 62 | 219 | 0.9 | 4.3 | 0.00 | 0.00 | 0.00 | 77 | 1014.1 |
| 20260502031047 | 71 | 7 | 4.3 | 11.3 | 0.00 | 0.00 | 0.00 | 17 | 1013.6 |
| 20260502030547 | 71 | 320 | 7.0 | 11.3 | 0.00 | 0.00 | 0.00 | 17 | 1013.6 |
| 20260502030059 | 71 | 21 | 7.0 | 11.3 | 0.00 | 0.00 | 0.00 | 17 | 1013.5 |
| 20260502030050 | 63 | 0 | 1.7 | 5.2 | 0.00 | 0.00 | 0.00 | 75 | 1013.7 |
| 20260502025546 | 72 | 22 | 6.1 | 11.3 | 0.00 | 0.00 | 0.00 | 17 | 1013.5 |
| 20260502025046 | 72 | 27 | 7.0 | 11.3 | 0.00 | 0.00 | 0.00 | 17 | 1013.3 |
| 20260502024557 | 72 | 9 | 5.2 | 11.3 | 0.00 | 0.00 | 0.00 | 17 | 1013.2 |
| 20260502024546 | 65 | 236 | 2.6 | 7.0 | 0.00 | 0.00 | 0.00 | 72 | 1013.4 |
| 20260502024047 | 73 | 6 | 7.0 | 11.3 | 0.00 | 0.00 | 0.00 | 17 | 1013.2 |
| 20260502023551 | 73 | 11 | 7.8 | 13.0 | 0.00 | 0.00 | 0.00 | 16 | 1013.2 |
| 20260502023129 | 73 | 13 | 5.2 | 13.0 | 0.00 | 0.00 | 0.00 | 16 | 1013.1 |
| 20260502023050 | 66 | 232 | 1.7 | 7.8 | 0.00 | 0.00 | 0.00 | 70 | 1013.4 |
| 20260502022543 | 73 | 13 | 7.8 | 13.0 | 0.00 | 0.00 | 0.00 | 16 | 1013.1 |
| 20260502022048 | 74 | 33 | 5.2 | 13.0 | 0.00 | 0.00 | 0.00 | 16 | 1013.1 |
| 20260502021553 | 74 | 352 | 2.6 | 7.0 | 0.00 | 0.00 | 0.00 | 16 | 1013.1 |
| 20260502021543 | 69 | 228 | 3.5 | 7.8 | 0.00 | 0.00 | 0.00 | 66 | 1013.2 |
| 20260502021049 | 75 | 13 | 2.6 | 7.0 | 0.00 | 0.00 | 0.00 | 16 | 1013.1 |
| 20260502020547 | 76 | 29 | 2.6 | 8.7 | 0.00 | 0.00 | 0.00 | 15 | 1013.0 |
| 20260502020057 | 77 | 340 | 5.2 | 8.7 | 0.00 | 0.00 | 0.00 | 15 | 1012.9 |
| 20260502020049 | 70 | 231 | 1.7 | 5.2 | 0.00 | 0.00 | 0.00 | 64 | 1013.0 |
| 20260502015547 | 77 | 352 | 2.6 | 7.8 | 0.00 | 0.00 | 0.00 | 15 | 1012.8 |
| 20260502015048 | 78 | 293 | 4.3 | 10.4 | 0.00 | 0.00 | 0.00 | 15 | 1012.8 |
| 20260502014555 | 78 | 303 | 5.2 | 10.4 | 0.00 | 0.00 | 0.00 | 14 | 1012.7 |
| 20260502014550 | 71 | 231 | 3.5 | 7.0 | 0.00 | 0.00 | 0.00 | 62 | 1012.9 |
| 20260502014050 | 78 | 280 | 7.0 | 10.4 | 0.00 | 0.00 | 0.00 | 14 | 1012.6 |
| 20260502013548 | 79 | 275 | 4.3 | 11.3 | 0.00 | 0.00 | 0.00 | 14 | 1012.5 |
| 20260502013054 | 79 | 298 | 5.2 | 11.3 | 0.00 | 0.00 | 0.00 | 14 | 1012.5 |
| 20260502013045 | 72 | 243 | 1.7 | 6.1 | 0.00 | 0.00 | 0.00 | 62 | 1012.7 |
| 20260502012544 | 79 | 283 | 7.0 | 10.4 | 0.00 | 0.00 | 0.00 | 14 | 1012.5 |
| 20260502012043 | 79 | 308 | 7.0 | 13.0 | 0.00 | 0.00 | 0.00 | 14 | 1012.5 |
| 20260502011557 | 79 | 293 | 8.7 | 13.0 | 0.00 | 0.00 | 0.00 | 14 | 1012.5 |
| 20260502011545 | 72 | 261 | 3.5 | 8.7 | 0.00 | 0.00 | 0.00 | 62 | 1012.6 |
| 20260502011043 | 79 | 310 | 7.0 | 12.2 | 0.00 | 0.00 | 0.00 | 14 | 1012.5 |
| 20260502010550 | 80 | 270 | 6.1 | 10.4 | 0.00 | 0.00 | 0.00 | 14 | 1012.4 |
| 20260502010052 | 80 | 283 | 5.2 | 10.4 | 0.00 | 0.00 | 0.00 | 13 | 1012.5 |
| 20260502010046 | 73 | 276 | 5.2 | 10.4 | 0.00 | 0.00 | 0.00 | 61 | 1012.7 |
| 20260502005543 | 81 | 275 | 5.2 | 10.4 | 0.00 | 0.00 | 0.00 | 13 | 1012.5 |
| 20260502005048 | 81 | 310 | 3.5 | 9.6 | 0.00 | 0.00 | 0.00 | 13 | 1012.4 |
| 20260502004608 | 81 | 240 | 4.3 | 9.6 | 0.00 | 0.00 | 0.00 | 13 | 1012.4 |
| 20260502004538 | 74 | 256 | 7.0 | 11.3 | 0.00 | 0.00 | 0.00 | 60 | 1012.7 |
| 20260502004044 | 81 | 306 | 5.2 | 11.3 | 0.00 | 0.00 | 0.00 | 13 | 1012.4 |
| 20260502003543 | 81 | 278 | 6.1 | 12.2 | 0.00 | 0.00 | 0.00 | 13 | 1012.3 |
| 20260502003049 | 81 | 243 | 7.8 | 12.2 | 0.00 | 0.00 | 0.00 | 13 | 1012.3 |
| 20260502003045 | 74 | 209 | 5.2 | 12.2 | 0.00 | 0.00 | 0.00 | 59 | 1012.5 |
| 20260502002543 | 81 | 311 | 6.1 | 11.3 | 0.00 | 0.00 | 0.00 | 13 | 1012.2 |
| 20260502002047 | 81 | 254 | 6.1 | 11.3 | 0.00 | 0.00 | 0.00 | 13 | 1012.5 |
| 20260502001555 | 82 | 6 | 0.9 | 8.7 | 0.00 | 0.00 | 0.00 | 13 | 1012.4 |
| 20260502001544 | 75 | 307 | 6.1 | 11.3 | 0.00 | 0.00 | 0.00 | 57 | 1012.5 |
| 20260502001048 | 82 | 231 | 5.2 | 8.7 | 0.00 | 0.00 | 0.00 | 13 | 1012.4 |
| 20260502000546 | 82 | 243 | 2.6 | 7.0 | 0.00 | 0.00 | 0.00 | 13 | 1012.4 |
| 20260502000054 | 82 | 274 | 2.6 | 6.1 | 0.00 | 0.00 | 0.00 | 13 | 1012.4 |
| 20260501235549 | 82 | 27 | 1.7 | 5.2 | 0.00 | 0.00 | 0.00 | 13 | 1012.3 |
| 20260501235047 | 82 | 0 | 0.0 | 6.1 | 0.00 | 0.00 | 0.00 | 13 | 1012.4 |
| 20260501234557 | 82 | 107 | 3.5 | 7.8 | 0.00 | 0.00 | 0.00 | 13 | 1012.3 |
| 20260501234545 | 76 | 222 | 7.0 | 13.0 | 0.00 | 0.00 | 0.00 | 54 | 1012.3 |
| 20260501234045 | 82 | 65 | 1.7 | 7.8 | 0.00 | 0.00 | 0.00 | 13 | 1012.2 |
| 20260501233547 | 82 | 136 | 3.5 | 7.8 | 0.00 | 0.00 | 0.00 | 13 | 1012.3 |
| 20260501233057 | 82 | 268 | 4.3 | 9.6 | 0.00 | 0.00 | 0.00 | 14 | 1012.4 |
| 20260501233047 | 78 | 246 | 5.2 | 9.6 | 0.00 | 0.00 | 0.00 | 52 | 1012.2 |
| 20260501232546 | 83 | 281 | 5.2 | 9.6 | 0.00 | 0.00 | 0.00 | 13 | 1012.5 |
| 20260501232045 | 82 | 209 | 3.5 | 11.3 | 0.00 | 0.00 | 0.00 | 14 | 1012.4 |
| 20260501231601 | 82 | 222 | 5.2 | 13.0 | 0.00 | 0.00 | 0.00 | 14 | 1012.5 |
| 20260501231559 | 77 | 227 | 6.1 | 13.0 | 0.00 | 0.00 | 0.00 | 51 | 1012.1 |
| 20260501231048 | 82 | 213 | 8.7 | 13.9 | 0.00 | 0.00 | 0.00 | 13 | 1012.5 |
| 20260501230545 | 82 | 207 | 8.7 | 13.9 | 0.00 | 0.00 | 0.00 | 13 | 1012.4 |
| 20260501230056 | 78 | 250 | 6.1 | 10.4 | 0.00 | 0.00 | 0.00 | 49 | 1012.1 |
| 20260501230050 | 82 | 206 | 7.8 | 12.2 | 0.00 | 0.00 | 0.00 | 13 | 1012.5 |
| 20260501225546 | 83 | 215 | 7.0 | 11.3 | 0.00 | 0.00 | 0.00 | 13 | 1012.5 |
| 20260501225047 | 82 | 257 | 5.2 | 10.4 | 0.00 | 0.00 | 0.00 | 14 | 1012.5 |
| 20260501224557 | 79 | 224 | 6.1 | 13.9 | 0.00 | 0.00 | 0.00 | 49 | 1012.3 |
| 20260501224552 | 82 | 162 | 2.6 | 13.9 | 0.00 | 0.00 | 0.00 | 14 | 1012.5 |
| 20260501224046 | 81 | 2 | 6.1 | 13.9 | 0.00 | 0.00 | 0.00 | 14 | 1012.6 |
| 20260501223547 | 82 | 293 | 7.0 | 13.9 | 0.00 | 0.00 | 0.00 | 14 | 1012.6 |
| 20260501223106 | 82 | 188 | 0.0 | 6.1 | 0.00 | 0.00 | 0.00 | 14 | 1012.7 |
| 20260501223051 | 80 | 207 | 5.2 | 12.2 | 0.00 | 0.00 | 0.00 | 47 | 1012.3 |
| 20260501222547 | 81 | 99 | 2.6 | 7.8 | 0.00 | 0.00 | 0.00 | 14 | 1012.7 |
| 20260501222050 | 80 | 201 | 2.6 | 7.8 | 0.00 | 0.00 | 0.00 | 14 | 1012.8 |
| 20260501221600 | 80 | 236 | 7.0 | 10.4 | 0.00 | 0.00 | 0.00 | 46 | 1012.6 |
| 20260501221558 | 80 | 257 | 1.7 | 12.2 | 0.00 | 0.00 | 0.00 | 14 | 1012.8 |
| 20260501221045 | 81 | 285 | 6.1 | 12.2 | 0.00 | 0.00 | 0.00 | 14 | 1013.0 |
| 20260501220545 | 81 | 264 | 4.3 | 10.4 | 0.00 | 0.00 | 0.00 | 14 | 1013.0 |
| 20260501220055 | 81 | 267 | 3.5 | 13.9 | 0.00 | 0.00 | 0.00 | 13 | 1013.2 |
| 20260501220052 | 79 | 282 | 7.8 | 12.2 | 0.00 | 0.00 | 0.00 | 47 | 1012.9 |
| 20260501215545 | 82 | 231 | 7.0 | 13.9 | 0.00 | 0.00 | 0.00 | 13 | 1013.2 |
| 20260501215046 | 82 | 208 | 7.0 | 13.9 | 0.00 | 0.00 | 0.00 | 13 | 1013.2 |
| 20260501214550 | 81 | 81 | 1.7 | 12.2 | 0.00 | 0.00 | 0.00 | 13 | 1013.2 |
| 20260501214046 | 81 | 236 | 7.0 | 14.8 | 0.00 | 0.00 | 0.00 | 14 | 1013.5 |
| 20260501213547 | 81 | 250 | 8.7 | 14.8 | 0.00 | 0.00 | 0.00 | 14 | 1013.4 |
| 20260501213111 | 80 | 186 | 1.7 | 7.0 | 0.00 | 0.00 | 0.00 | 14 | 1013.4 |
| 20260501213047 | 78 | 246 | 5.2 | 12.2 | 0.00 | 0.00 | 0.00 | 48 | 1013.1 |
| 20260501212545 | 79 | 243 | 1.7 | 11.3 | 0.00 | 0.00 | 0.00 | 15 | 1013.5 |
| 20260501212045 | 78 | 2 | 5.2 | 12.2 | 0.00 | 0.00 | 0.00 | 15 | 1013.6 |
| 20260501211604 | 78 | 224 | 7.0 | 13.0 | 0.00 | 0.00 | 0.00 | 48 | 1013.1 |
| 20260501211551 | 78 | 308 | 4.3 | 15.6 | 0.00 | 0.00 | 0.00 | 15 | 1013.7 |
| 20260501211045 | 79 | 344 | 8.7 | 15.6 | 0.00 | 0.00 | 0.00 | 15 | 1013.6 |
| 20260501210546 | 79 | 324 | 7.8 | 15.6 | 0.00 | 0.00 | 0.00 | 15 | 1013.5 |
| 20260501210052 | 80 | 295 | 5.2 | 15.6 | 0.00 | 0.00 | 0.00 | 14 | 1013.6 |
| 20260501210045 | 78 | 232 | 6.1 | 11.3 | 0.00 | 0.00 | 0.00 | 48 | 1013.2 |
| 20260501205548 | 80 | 319 | 11.3 | 14.8 | 0.00 | 0.00 | 0.00 | 14 | 1013.6 |
| 20260501205045 | 80 | 289 | 3.5 | 10.4 | 0.00 | 0.00 | 0.00 | 14 | 1013.6 |
| 20260501204555 | 77 | 246 | 4.3 | 10.4 | 0.00 | 0.00 | 0.00 | 49 | 1013.5 |
| 20260501204550 | 80 | 259 | 7.0 | 15.6 | 0.00 | 0.00 | 0.00 | 14 | 1013.7 |
| 20260501204045 | 80 | 4 | 7.0 | 15.6 | 0.00 | 0.00 | 0.00 | 14 | 1013.7 |
| 20260501203554 | 80 | 320 | 10.4 | 15.6 | 0.00 | 0.00 | 0.00 | 14 | 1013.6 |
| 20260501203101 | 79 | 255 | 2.6 | 14.8 | 0.00 | 0.00 | 0.00 | 14 | 1013.7 |
| 20260501203051 | 76 | 0 | 3.5 | 12.2 | 0.00 | 0.00 | 0.00 | 49 | 1013.4 |
| 20260501202543 | 79 | 313 | 4.3 | 14.8 | 0.00 | 0.00 | 0.00 | 14 | 1013.9 |
| 20260501202043 | 79 | 273 | 7.8 | 14.8 | 0.00 | 0.00 | 0.00 | 14 | 1014.0 |
| 20260501201551 | 79 | 134 | 8.7 | 13.9 | 0.00 | 0.00 | 0.00 | 14 | 1013.8 |
| 20260501201210 | 79 | 276 | 7.8 | 11.3 | 0.00 | 0.00 | 0.00 | 14 | 1014.0 |
| 20260501200548 | 79 | 236 | 5.2 | 15.6 | 0.00 | 0.00 | 0.00 | 15 | 1013.9 |
| 20260501200051 | 78 | 264 | 8.7 | 15.6 | 0.00 | 0.00 | 0.00 | 15 | 1013.9 |
| 20260501200049 | 74 | 191 | 6.1 | 13.0 | 0.00 | 0.00 | 0.00 | 53 | 1013.7 |
| 20260501195548 | 78 | 240 | 3.5 | 20.0 | 0.00 | 0.00 | 0.00 | 15 | 1013.9 |
| 20260501195048 | 78 | 4 | 9.6 | 20.0 | 0.00 | 0.00 | 0.00 | 15 | 1014.2 |
| 20260501194550 | 77 | 38 | 6.1 | 13.0 | 0.00 | 0.00 | 0.00 | 16 | 1014.2 |
| 20260501194547 | 73 | 207 | 6.1 | 12.2 | 0.00 | 0.00 | 0.00 | 55 | 1013.8 |
| 20260501194048 | 77 | 2 | 7.8 | 18.2 | 0.00 | 0.00 | 0.00 | 15 | 1014.2 |
| 20260501193550 | 77 | 24 | 12.2 | 20.9 | 0.00 | 0.00 | 0.00 | 15 | 1014.3 |
| 20260501193057 | 78 | 5 | 7.8 | 20.9 | 0.00 | 0.00 | 0.00 | 16 | 1014.3 |
| 20260501193046 | 73 | 304 | 3.5 | 9.6 | 0.00 | 0.00 | 0.00 | 55 | 1014.0 |
| 20260501192545 | 77 | 7 | 9.6 | 19.1 | 0.00 | 0.00 | 0.00 | 16 | 1014.4 |
| 20260501192043 | 77 | 23 | 9.6 | 13.9 | 0.00 | 0.00 | 0.00 | 16 | 1014.5 |
| 20260501191550 | 78 | 340 | 9.6 | 13.9 | 0.00 | 0.00 | 0.00 | 15 | 1014.6 |
| 20260501191541 | 72 | 263 | 2.6 | 7.8 | 0.00 | 0.00 | 0.00 | 58 | 1014.1 |
| 20260501191043 | 79 | 327 | 8.7 | 15.6 | 0.00 | 0.00 | 0.00 | 15 | 1014.6 |
| 20260501190558 | 78 | 327 | 9.6 | 15.6 | 0.00 | 0.00 | 0.00 | 15 | 1014.6 |
| 20260501190048 | 70 | 259 | 1.7 | 7.8 | 0.00 | 0.00 | 0.00 | 61 | 1014.4 |
| 20260501185546 | 78 | 18 | 7.8 | 14.8 | 0.00 | 0.00 | 0.00 | 15 | 1014.9 |
| 20260501185043 | 78 | 1 | 9.6 | 16.5 | 0.00 | 0.00 | 0.00 | 15 | 1014.9 |
| 20260501184606 | 77 | 311 | 10.4 | 20.9 | 0.00 | 0.00 | 0.00 | 15 | 1014.8 |
| 20260501184550 | 70 | 269 | 5.2 | 8.7 | 0.00 | 0.00 | 0.00 | 63 | 1014.6 |
| 20260501184049 | 77 | 309 | 8.7 | 20.9 | 0.00 | 0.00 | 0.00 | 15 | 1014.9 |
| 20260501183549 | 77 | 352 | 7.0 | 20.0 | 0.00 | 0.00 | 0.00 | 16 | 1014.9 |
| 20260501183058 | 77 | 321 | 11.3 | 20.0 | 0.00 | 0.00 | 0.00 | 16 | 1015.1 |
| 20260501183048 | 68 | 0 | 3.5 | 9.6 | 0.00 | 0.00 | 0.00 | 66 | 1014.7 |
| 20260501182542 | 77 | 334 | 10.4 | 20.0 | 0.00 | 0.00 | 0.00 | 16 | 1015.1 |
| 20260501182042 | 77 | 342 | 10.4 | 16.5 | 0.00 | 0.00 | 0.00 | 16 | 1015.2 |
| 20260501181554 | 77 | 346 | 10.4 | 16.5 | 0.00 | 0.00 | 0.00 | 16 | 1015.2 |
| 20260501181546 | 67 | 243 | 4.3 | 9.6 | 0.00 | 0.00 | 0.00 | 68 | 1014.9 |
| 20260501181043 | 77 | 331 | 10.4 | 19.1 | 0.00 | 0.00 | 0.00 | 16 | 1015.2 |
| 20260501180542 | 76 | 34 | 10.4 | 19.1 | 0.00 | 0.00 | 0.00 | 16 | 1015.2 |
| 20260501180051 | 76 | 1 | 8.7 | 19.1 | 0.00 | 0.00 | 0.00 | 16 | 1015.1 |
| 20260501180047 | 66 | 292 | 5.2 | 9.6 | 0.00 | 0.00 | 0.00 | 70 | 1014.9 |
| 20260501175546 | 77 | 22 | 10.4 | 15.6 | 0.00 | 0.00 | 0.00 | 16 | 1015.1 |
| 20260501175042 | 76 | 9 | 9.6 | 14.8 | 0.00 | 0.00 | 0.00 | 16 | 1015.1 |
| 20260501174552 | 76 | 6 | 9.6 | 15.6 | 0.00 | 0.00 | 0.00 | 16 | 1015.2 |
| 20260501174550 | 65 | 210 | 4.3 | 10.4 | 0.00 | 0.00 | 0.00 | 73 | 1015.0 |
| 20260501174046 | 76 | 30 | 7.8 | 17.4 | 0.00 | 0.00 | 0.00 | 16 | 1015.2 |
| 20260501173550 | 75 | 343 | 12.2 | 17.4 | 0.00 | 0.00 | 0.00 | 16 | 1015.2 |
| 20260501173110 | 75 | 5 | 9.6 | 19.1 | 0.00 | 0.00 | 0.00 | 16 | 1015.2 |
| 20260501173047 | 64 | 303 | 3.5 | 7.8 | 0.00 | 0.00 | 0.00 | 75 | 1015.1 |
| 20260501172551 | 75 | 25 | 12.2 | 19.1 | 0.00 | 0.00 | 0.00 | 16 | 1015.2 |
| 20260501172045 | 74 | 357 | 12.2 | 19.1 | 0.00 | 0.00 | 0.00 | 17 | 1015.2 |
| 20260501171558 | 75 | 336 | 12.2 | 18.2 | 0.00 | 0.00 | 0.00 | 17 | 1015.2 |
| 20260501171547 | 62 | 338 | 2.6 | 6.1 | 0.00 | 0.00 | 0.00 | 78 | 1015.0 |
| 20260501171044 | 75 | 342 | 11.3 | 16.5 | 0.00 | 0.00 | 0.00 | 17 | 1015.2 |
| 20260501170544 | 75 | 318 | 11.3 | 16.5 | 0.00 | 0.00 | 0.00 | 17 | 1015.2 |
| 20260501170213 | 74 | 350 | 11.3 | 16.5 | 0.00 | 0.00 | 0.00 | 17 | 1015.2 |
| 20260501170113 | 74 | 350 | 11.3 | 16.5 | 0.00 | 0.00 | 0.00 | 17 | 1015.2 |
| 20260501170049 | 61 | 277 | 0.9 | 6.1 | 0.00 | 0.00 | 0.00 | 80 | 1015.2 |
| 20260501165545 | 75 | 355 | 10.4 | 16.5 | 0.00 | 0.00 | 0.00 | 17 | 1015.2 |
| 20260501165049 | 75 | 359 | 10.4 | 17.4 | 0.00 | 0.00 | 0.00 | 17 | 1015.2 |
| 20260501164603 | 75 | 354 | 10.4 | 17.4 | 0.00 | 0.00 | 0.00 | 17 | 1015.0 |
| 20260501164543 | 59 | 277 | 1.7 | 5.2 | 0.00 | 0.00 | 0.00 | 86 | 1015.2 |
| 20260501164045 | 74 | 329 | 10.4 | 17.4 | 0.00 | 0.00 | 0.00 | 17 | 1015.0 |
| 20260501163545 | 74 | 340 | 10.4 | 17.4 | 0.00 | 0.00 | 0.00 | 17 | 1015.0 |
| 20260501163057 | 74 | 18 | 11.3 | 17.4 | 0.00 | 0.00 | 0.00 | 17 | 1014.8 |
| 20260501163045 | 57 | 299 | 2.6 | 6.1 | 0.00 | 0.00 | 0.00 | 90 | 1015.3 |
| 20260501162545 | 73 | 334 | 9.6 | 17.4 | 0.00 | 0.00 | 0.00 | 18 | 1014.8 |
| 20260501162045 | 73 | 300 | 9.6 | 14.8 | 0.00 | 0.00 | 0.00 | 18 | 1014.8 |
| 20260501161552 | 55 | 167 | 0.9 | 3.5 | 0.00 | 0.00 | 0.00 | 95 | 1015.2 |
| 20260501161549 | 73 | 333 | 10.4 | 14.8 | 0.00 | 0.00 | 0.00 | 18 | 1014.8 |
| 20260501161044 | 73 | 336 | 10.4 | 14.8 | 0.00 | 0.00 | 0.00 | 18 | 1014.8 |
| 20260501160544 | 73 | 301 | 10.4 | 14.8 | 0.00 | 0.00 | 0.00 | 18 | 1014.8 |
| 20260501160052 | 73 | 296 | 9.6 | 16.5 | 0.00 | 0.00 | 0.00 | 18 | 1014.8 |
| 20260501155545 | 72 | 356 | 8.7 | 16.5 | 0.00 | 0.00 | 0.00 | 18 | 1014.6 |
| 20260501155049 | 72 | 311 | 9.6 | 16.5 | 0.00 | 0.00 | 0.00 | 18 | 1014.5 |
| 20260501154559 | 53 | 289 | 2.6 | 7.0 | 0.00 | 0.00 | 0.00 | 96 | 1015.2 |
| 20260501154555 | 72 | 323 | 10.4 | 16.5 | 0.00 | 0.00 | 0.00 | 18 | 1014.5 |
| 20260501154044 | 72 | 342 | 10.4 | 16.5 | 0.00 | 0.00 | 0.00 | 18 | 1014.3 |